Time,TemperatureF,DewpointF,PressureIn,WindDirection,WindDirectionDegrees,WindSpeedMPH,WindSpeedGustMPH,Humidity,HourlyPrecipIn,Conditions,Clouds,dailyrainin,SoftwareType,DateUTC
2013-01-19 00:04:00,18.0,5.0,-100.00,ESE,105,2.0,6.0,54,0.00,,,-99.99,,2013-01-19 05:04:00,
2013-01-19 00:12:00,19.0,5.0,-100.00,East,80,1.0,6.0,55,0.00,,,-99.99,,2013-01-19 05:12:00,
2013-01-19 00:23:00,19.0,5.0,-100.00,ENE,75,2.0,6.0,55,0.00,,,-99.99,,2013-01-19 05:23:00,
2013-01-19 00:33:00,19.0,5.0,-100.00,ESE,110,3.0,6.0,54,0.00,,,-99.99,,2013-01-19 05:33:00,
2013-01-19 00:42:00,19.0,5.0,-100.00,East,100,3.0,7.0,54,0.00,,,-99.99,,2013-01-19 05:42:00,
2013-01-19 00:52:00,19.0,6.0,-100.00,ESE,115,2.0,6.0,56,0.00,,,-99.99,,2013-01-19 05:52:00,
2013-01-19 01:02:00,19.0,6.0,-100.00,ESE,105,2.0,6.0,56,0.00,,,-99.99,,2013-01-19 06:02:00,
2013-01-19 01:12:00,19.0,6.0,-100.00,SE,125,1.0,4.0,57,0.00,,,-99.99,,2013-01-19 06:12:00,
2013-01-19 01:22:00,19.0,6.0,-100.00,East,95,2.0,7.0,56,0.00,,,-99.99,,2013-01-19 06:22:00,
2013-01-19 01:32:00,19.0,6.0,-100.00,East,95,2.0,7.0,56,0.00,,,-99.99,,2013-01-19 06:32:00,
2013-01-19 01:43:00,19.0,7.0,-100.00,ESE,110,1.0,4.0,59,0.00,,,-99.99,,2013-01-19 06:43:00,
2013-01-19 01:52:00,19.0,7.0,-100.00,NE,50,1.0,5.0,57,0.00,,,-99.99,,2013-01-19 06:52:00,
2013-01-19 02:02:00,20.0,7.0,-100.00,SE,135,1.0,3.0,58,0.00,,,-99.99,,2013-01-19 07:02:00,
2013-01-19 02:12:00,20.0,7.0,-100.00,ESE,110,2.0,3.0,57,0.00,,,-99.99,,2013-01-19 07:12:00,
2013-01-19 02:22:00,20.0,8.0,-100.00,ESE,105,2.0,4.0,57,0.00,,,-99.99,,2013-01-19 07:22:00,
2013-01-19 02:33:00,20.0,8.0,-100.00,East,90,2.0,4.0,58,0.00,,,-99.99,,2013-01-19 07:33:00,
2013-01-19 02:43:00,20.0,8.0,-100.00,East,80,2.0,7.0,58,0.00,,,-99.99,,2013-01-19 07:43:00,
2013-01-19 02:52:00,20.0,8.0,-100.00,ESE,105,1.0,6.0,57,0.00,,,-99.99,,2013-01-19 07:52:00,
2013-01-19 03:02:00,20.0,8.0,-100.00,SSE,150,1.0,6.0,57,0.00,,,-99.99,,2013-01-19 08:02:00,
2013-01-19 03:12:00,20.0,8.0,-100.00,ESE,105,2.0,4.0,58,0.00,,,-99.99,,2013-01-19 08:12:00,
2013-01-19 03:22:00,20.0,8.0,-100.00,ESE,105,3.0,6.0,57,0.00,,,-99.99,,2013-01-19 08:22:00,
2013-01-19 03:32:00,21.0,8.0,-100.00,ESE,115,2.0,5.0,58,0.00,,,-99.99,,2013-01-19 08:32:00,
2013-01-19 03:43:00,21.0,8.0,-100.00,ESE,115,2.0,7.0,58,0.00,,,-99.99,,2013-01-19 08:43:00,
2013-01-19 03:52:00,21.0,9.0,-100.00,ESE,120,2.0,5.0,58,0.00,,,-99.99,,2013-01-19 08:52:00,
2013-01-19 04:02:00,21.0,9.0,-100.00,ESE,105,2.0,4.0,59,0.00,,,-99.99,,2013-01-19 09:02:00,
2013-01-19 04:12:00,21.0,9.0,-100.00,East,95,2.0,6.0,59,0.00,,,-99.99,,2013-01-19 09:12:00,
2013-01-19 04:23:00,21.0,9.0,-100.00,SE,135,1.0,4.0,59,0.00,,,-99.99,,2013-01-19 09:23:00,
2013-01-19 04:33:00,21.0,10.0,-100.00,ESE,105,2.0,4.0,60,0.00,,,-99.99,,2013-01-19 09:33:00,
2013-01-19 04:42:00,22.0,9.0,-100.00,East,100,2.0,4.0,58,0.00,,,-99.99,,2013-01-19 09:42:00,
2013-01-19 04:52:00,22.0,10.0,-100.00,East,100,1.0,5.0,60,0.00,,,-99.99,,2013-01-19 09:52:00,
2013-01-19 05:02:00,22.0,10.0,-100.00,East,85,1.0,4.0,60,0.00,,,-99.99,,2013-01-19 10:02:00,
2013-01-19 05:12:00,22.0,10.0,-100.00,ESE,110,2.0,6.0,60,0.00,,,-99.99,,2013-01-19 10:12:00,
2013-01-19 05:22:00,22.0,10.0,-100.00,SE,130,1.0,5.0,59,0.00,,,-99.99,,2013-01-19 10:22:00,
2013-01-19 05:32:00,22.0,11.0,-100.00,ESE,105,2.0,4.0,60,0.00,,,-99.99,,2013-01-19 10:32:00,
2013-01-19 05:42:00,22.0,11.0,-100.00,East,100,2.0,4.0,60,0.00,,,-99.99,,2013-01-19 10:42:00,
2013-01-19 05:52:00,22.0,11.0,-100.00,SE,135,2.0,4.0,61,0.00,,,-99.99,,2013-01-19 10:52:00,
2013-01-19 06:03:00,22.0,11.0,-100.00,East,100,2.0,4.0,60,0.00,,,-99.99,,2013-01-19 11:03:00,
2013-01-19 06:12:00,23.0,11.0,-100.00,East,100,2.0,4.0,60,0.00,,,-99.99,,2013-01-19 11:12:00,
2013-01-19 07:48:00,25.0,13.0,-100.00,ESE,105,1.0,4.0,59,0.00,,,-99.99,,2013-01-19 12:48:00,
2013-01-19 07:53:00,25.0,14.0,-100.00,ESE,110,1.0,4.0,62,0.00,,,-99.99,,2013-01-19 12:53:00,
2013-01-19 08:03:00,25.0,14.0,-100.00,East,80,1.0,4.0,62,0.00,,,-99.99,,2013-01-19 13:03:00,
2013-01-19 08:12:00,25.0,13.0,-100.00,East,80,1.0,3.0,60,0.00,,,-99.99,,2013-01-19 13:12:00,
2013-01-19 08:22:00,25.0,15.0,-100.00,SE,140,3.0,6.0,65,0.00,,,-99.99,,2013-01-19 13:22:00,
2013-01-19 08:33:00,26.0,15.0,-100.00,SE,140,2.0,5.0,63,0.00,,,-99.99,,2013-01-19 13:33:00,
2013-01-19 08:43:00,26.0,15.0,-100.00,East,85,1.0,4.0,62,0.00,,,-99.99,,2013-01-19 13:43:00,
2013-01-19 08:53:00,27.0,15.0,-100.00,SE,140,2.0,5.0,61,0.00,,,-99.99,,2013-01-19 13:53:00,
2013-01-19 09:03:00,26.0,16.0,-100.00,SSE,165,3.0,5.0,63,0.00,,,-99.99,,2013-01-19 14:03:00,
2013-01-19 09:12:00,26.0,16.0,-100.00,SSE,150,2.0,4.0,64,0.00,,,-99.99,,2013-01-19 14:12:00,
2013-01-19 09:23:00,26.0,16.0,-100.00,WSW,245,1.0,3.0,64,0.00,,,-99.99,,2013-01-19 14:23:00,
2013-01-19 09:34:00,26.0,15.0,-100.00,West,260,0.0,1.0,64,0.00,,,-99.99,,2013-01-19 14:34:00,
2013-01-19 09:43:00,27.0,16.0,-100.00,East,100,1.0,4.0,63,0.00,,,-99.99,,2013-01-19 14:43:00,
2013-01-19 09:53:00,29.0,17.0,-100.00,SE,135,4.0,6.0,61,0.00,,,-99.99,,2013-01-19 14:53:00,
2013-01-19 10:03:00,30.0,18.0,-100.00,ESE,115,3.0,7.0,60,0.00,,,-99.99,,2013-01-19 15:03:00,
2013-01-19 10:13:00,31.0,17.0,-100.00,ESE,105,2.0,6.0,57,0.00,,,-99.99,,2013-01-19 15:13:00,
2013-01-19 10:23:00,31.0,17.0,-100.00,SE,135,2.0,6.0,56,0.00,,,-99.99,,2013-01-19 15:23:00,
2013-01-19 10:33:00,32.0,18.0,-100.00,ESE,120,2.0,6.0,55,0.00,,,-99.99,,2013-01-19 15:33:00,
2013-01-19 10:43:00,32.0,17.0,-100.00,ESE,120,2.0,4.0,54,0.00,,,-99.99,,2013-01-19 15:43:00,
2013-01-19 10:53:00,33.0,17.0,-100.00,East,80,1.0,4.0,53,0.00,,,-99.99,,2013-01-19 15:53:00,
2013-01-19 11:03:00,33.0,18.0,-100.00,East,90,1.0,4.0,52,0.00,,,-99.99,,2013-01-19 16:03:00,
2013-01-19 11:13:00,34.0,18.0,-100.00,East,85,2.0,4.0,52,0.00,,,-99.99,,2013-01-19 16:13:00,
2013-01-19 11:23:00,35.0,18.0,-100.00,East,95,3.0,7.0,51,0.00,,,-99.99,,2013-01-19 16:23:00,
2013-01-19 11:33:00,35.0,18.0,-100.00,ESE,120,3.0,9.0,49,0.00,,,-99.99,,2013-01-19 16:33:00,
2013-01-19 11:43:00,36.0,19.0,-100.00,ESE,105,2.0,5.0,49,0.00,,,-99.99,,2013-01-19 16:43:00,
2013-01-19 11:53:00,36.0,19.0,-100.00,SE,145,3.0,6.0,49,0.00,,,-99.99,,2013-01-19 16:53:00,
2013-01-19 12:03:00,37.0,19.0,-100.00,SE,125,3.0,11.0,48,0.00,,,-99.99,,2013-01-19 17:03:00,
2013-01-19 12:20:00,38.0,19.0,-100.00,ESE,120,4.0,10.0,46,0.00,,,-99.99,,2013-01-19 17:20:00,
2013-01-19 12:29:00,38.0,19.0,-100.00,SE,140,3.0,9.0,46,0.00,,,-99.99,,2013-01-19 17:29:00,
2013-01-19 12:35:00,39.0,20.0,-100.00,SE,145,4.0,9.0,45,0.00,,,-99.99,,2013-01-19 17:35:00,
2013-01-19 12:48:00,39.0,19.0,-100.00,SE,145,6.0,10.0,44,0.00,,,-99.99,,2013-01-19 17:48:00,
2013-01-19 12:53:00,39.0,19.0,-100.00,SE,140,5.0,12.0,44,0.00,,,-99.99,,2013-01-19 17:53:00,
2013-01-19 13:12:00,40.0,20.0,-100.00,SE,145,4.0,8.0,44,0.00,,,-99.99,,2013-01-19 18:12:00,
2013-01-19 13:27:00,41.0,21.0,-100.00,SSE,155,3.0,13.0,43,0.00,,,-99.99,,2013-01-19 18:27:00,
2013-01-19 13:35:00,42.0,19.0,-100.00,SSE,150,6.0,13.0,39,0.00,,,-99.99,,2013-01-19 18:35:00,
2013-01-19 13:45:00,42.0,21.0,-100.00,SSE,150,4.0,10.0,41,0.00,,,-99.99,,2013-01-19 18:45:00,
2013-01-19 13:55:00,42.0,20.0,-100.00,SE,130,4.0,9.0,40,0.00,,,-99.99,,2013-01-19 18:55:00,
2013-01-19 14:20:00,43.0,20.0,-100.00,ESE,120,3.0,7.0,39,0.00,,,-99.99,,2013-01-19 19:20:00,
2013-01-19 14:30:00,43.0,20.0,-100.00,SSE,155,3.0,9.0,40,0.00,,,-99.99,,2013-01-19 19:30:00,
2013-01-19 14:39:00,43.0,20.0,-100.00,SSW,205,6.0,14.0,39,0.00,,,-99.99,,2013-01-19 19:39:00,
2013-01-19 14:54:00,43.0,20.0,-100.00,SE,140,2.0,13.0,39,0.00,,,-99.99,,2013-01-19 19:54:00,
2013-01-19 15:10:00,43.0,20.0,-100.00,SSE,165,4.0,9.0,39,0.00,,,-99.99,,2013-01-19 20:10:00,
2013-01-19 15:19:00,44.0,22.0,-100.00,SE,135,3.0,7.0,40,0.00,,,-99.99,,2013-01-19 20:19:00,
2013-01-19 15:38:00,44.0,22.0,-100.00,South,175,3.0,11.0,41,0.00,,,-99.99,,2013-01-19 20:38:00,
2013-01-19 15:48:00,43.0,21.0,-100.00,SSE,160,2.0,7.0,40,0.00,,,-99.99,,2013-01-19 20:48:00,
2013-01-19 15:54:00,43.0,24.0,-100.00,NE,45,1.0,6.0,46,0.00,,,-99.99,,2013-01-19 20:54:00,
2013-01-19 16:07:00,43.0,22.0,-100.00,ESE,120,2.0,7.0,42,0.00,,,-99.99,,2013-01-19 21:07:00,
2013-01-19 16:14:00,43.0,22.0,-100.00,East,100,3.0,5.0,42,0.00,,,-99.99,,2013-01-19 21:14:00,
2013-01-19 16:26:00,42.0,23.0,-100.00,SE,135,1.0,6.0,46,0.00,,,-99.99,,2013-01-19 21:26:00,
2013-01-19 16:44:00,42.0,22.0,-100.00,ESE,110,1.0,6.0,44,0.00,,,-99.99,,2013-01-19 21:44:00,
2013-01-19 16:50:00,41.0,24.0,-100.00,ENE,70,1.0,3.0,50,0.00,,,-99.99,,2013-01-19 21:50:00,
2013-01-19 17:14:00,40.0,25.0,-100.00,ENE,70,1.0,3.0,53,0.00,,,-99.99,,2013-01-19 22:14:00,
2013-01-19 17:27:00,39.0,24.0,-100.00,East,80,2.0,4.0,54,0.00,,,-99.99,,2013-01-19 22:27:00,
2013-01-19 17:35:00,40.0,24.0,-100.00,East,85,2.0,4.0,53,0.00,,,-99.99,,2013-01-19 22:35:00,
2013-01-19 17:47:00,40.0,26.0,-100.00,ENE,70,2.0,6.0,56,0.00,,,-99.99,,2013-01-19 22:47:00,
2013-01-19 17:54:00,40.0,26.0,-100.00,East,85,2.0,3.0,56,0.00,,,-99.99,,2013-01-19 22:54:00,
2013-01-19 18:13:00,40.0,24.0,-100.00,East,85,2.0,3.0,52,0.00,,,-99.99,,2013-01-19 23:13:00,
2013-01-19 18:25:00,40.0,25.0,-100.00,ENE,75,2.0,4.0,55,0.00,,,-99.99,,2013-01-19 23:25:00,
2013-01-19 18:34:00,39.0,26.0,-100.00,East,85,2.0,3.0,59,0.00,,,-99.99,,2013-01-19 23:34:00,
2013-01-19 18:45:00,39.0,26.0,-100.00,ENE,75,2.0,4.0,58,0.00,,,-99.99,,2013-01-19 23:45:00,
2013-01-19 18:59:00,38.0,27.0,-100.00,NE,45,1.0,3.0,64,0.00,,,-99.99,,2013-01-19 23:59:00,
2013-01-19 19:09:00,38.0,25.0,-100.00,East,80,1.0,4.0,58,0.00,,,-99.99,,2013-01-20 00:09:00,
2013-01-19 19:15:00,40.0,25.0,-100.00,East,100,2.0,5.0,54,0.00,,,-99.99,,2013-01-20 00:15:00,
2013-01-19 19:25:00,39.0,26.0,-100.00,East,90,1.0,4.0,57,0.00,,,-99.99,,2013-01-20 00:25:00,
2013-01-19 19:35:00,38.0,26.0,-100.00,ESE,110,2.0,6.0,59,0.00,,,-99.99,,2013-01-20 00:35:00,
2013-01-19 19:46:00,38.0,26.0,-100.00,East,100,2.0,4.0,61,0.00,,,-99.99,,2013-01-20 00:46:00,
2013-01-19 19:54:00,38.0,26.0,-100.00,East,80,1.0,4.0,59,0.00,,,-99.99,,2013-01-20 00:54:00,
2013-01-19 20:04:00,39.0,25.0,-100.00,ESE,115,2.0,5.0,56,0.00,,,-99.99,,2013-01-20 01:04:00,
2013-01-19 20:20:00,39.0,25.0,-100.00,East,90,2.0,4.0,57,0.00,,,-99.99,,2013-01-20 01:20:00,
2013-01-19 20:27:00,39.0,25.0,-100.00,East,85,2.0,4.0,56,0.00,,,-99.99,,2013-01-20 01:27:00,
2013-01-19 20:37:00,38.0,25.0,-100.00,ESE,115,2.0,5.0,58,0.00,,,-99.99,,2013-01-20 01:37:00,
2013-01-19 20:48:00,38.0,27.0,-100.00,ESE,105,2.0,6.0,62,0.00,,,-99.99,,2013-01-20 01:48:00,
2013-01-19 20:58:00,39.0,26.0,-100.00,East,85,2.0,6.0,60,0.00,,,-99.99,,2013-01-20 01:58:00,
2013-01-19 21:08:00,39.0,26.0,-100.00,ESE,110,3.0,6.0,60,0.00,,,-99.99,,2013-01-20 02:08:00,
2013-01-19 21:15:00,38.0,27.0,-100.00,East,85,2.0,6.0,62,0.00,,,-99.99,,2013-01-20 02:15:00,
2013-01-19 21:26:00,38.0,27.0,-100.00,East,100,2.0,4.0,62,0.00,,,-99.99,,2013-01-20 02:26:00,
2013-01-19 21:35:00,38.0,27.0,-100.00,East,100,2.0,4.0,63,0.00,,,-99.99,,2013-01-20 02:35:00,
2013-01-19 21:55:00,38.0,27.0,-100.00,East,85,2.0,6.0,63,0.00,,,-99.99,,2013-01-20 02:55:00,
2013-01-19 22:08:00,38.0,27.0,-100.00,East,85,2.0,4.0,64,0.00,,,-99.99,,2013-01-20 03:08:00,
2013-01-19 22:14:00,38.0,27.0,-100.00,East,85,2.0,4.0,65,0.00,,,-99.99,,2013-01-20 03:14:00,
2013-01-19 22:25:00,37.0,27.0,-100.00,East,100,2.0,4.0,66,0.00,,,-99.99,,2013-01-20 03:25:00,
2013-01-19 22:38:00,37.0,27.0,-100.00,East,90,2.0,6.0,66,0.00,,,-99.99,,2013-01-20 03:38:00,
2013-01-19 22:45:00,37.0,27.0,-100.00,East,95,2.0,4.0,68,0.00,,,-99.99,,2013-01-20 03:45:00,
2013-01-19 22:54:00,37.0,27.0,-100.00,East,100,2.0,5.0,67,0.00,,,-99.99,,2013-01-20 03:54:00,
2013-01-19 23:05:00,38.0,27.0,-100.00,ENE,70,2.0,6.0,64,0.00,,,-99.99,,2013-01-20 04:05:00,
2013-01-19 23:15:00,37.0,27.0,-100.00,East,95,1.0,4.0,67,0.00,,,-99.99,,2013-01-20 04:15:00,
2013-01-19 23:25:00,37.0,26.0,-100.00,East,85,2.0,5.0,64,0.00,,,-99.99,,2013-01-20 04:25:00,
2013-01-19 23:37:00,38.0,27.0,-100.00,East,95,2.0,4.0,63,0.00,,,-99.99,,2013-01-20 04:37:00,
2013-01-19 23:44:00,38.0,27.0,-100.00,East,100,2.0,5.0,63,0.00,,,-99.99,,2013-01-20 04:44:00,
2013-01-19 23:54:00,38.0,27.0,-100.00,East,95,2.0,4.0,65,0.00,,,-99.99,,2013-01-20 04:54:00,